User: anonymous   Login
Location: Unspecified
(0.0000°N, 0.0000°E)
Time: 12:00:17
(UTC+00:00)
Language:

Tiangong 1 - Orbit

View from above orbital plane
View from above orbital plane
View from above satellite
View from above satellite

Ground track
Ground track

The orbit data is extracted from the following two-line orbital elements,

1 37820U 11053A   14326.80178428  .00084810  00000-0  54649-3 0  5970
2 37820 042.7686 074.7266 0009482 359.4554 138.4063 15.75107405180969
Epoch (UTC): 22 November 2014 19:14:34
Eccentricity: 0.0009482
inclination: 42.7686°
perigee height: 338 km
apogee height: 351 km
right ascension of ascending node: 74.7266°
argument of perigee: 359.4554°
revolutions per day: 15.75107405
mean anomaly at epoch: 138.4063°
orbit number at epoch: 18096

The dashed part of the orbit path shows where the satellite is in the earth's shadow,  

DLR